Stations météo

réclame
Mon MeteoGroup
Huesca, Espagne (8094): Température de l'air & dewpoint: 18.06.2018 01:00:00 - 24.06.2018 01:00:00 (CEST)Huesca, Espagne (8094): Vitesse du vent: 18.06.2018 01:00:00 - 24.06.2018 01:00:00 (CEST)Huesca, Espagne (8094): Direction du vent: 18.06.2018 01:00:00 - 24.06.2018 01:00:00 (CEST)Huesca, Espagne (8094): reduced air pressure: 18.06.2018 01:00:00 - 24.06.2018 01:00:00 (CEST)Huesca, Espagne (8094): visibility: 18.06.2018 01:00:00 - 24.06.2018 01:00:00 (CEST)Huesca, Espagne (8094): Quantités de précipitations: 18.06.2018 01:00:00 - 24.06.2018 01:00:00 (CEST)
Date & Time tt [°C] td [°C] ff [km/h] ff [knt] dd ppp [hPa] vv [km] rr [mm]
24.06.2018 01:00:00 19,5 16,2 16 9 E 1017,1 - 0,0
24.06.2018 00:00:00 20,7 16,5 15 8 E 1016,6 - 0,0
23.06.2018 23:00:00 23,2 16,3 9 5 SE 1015,5 - -
23.06.2018 22:00:00 25,1 11,6 2 1 SW 1014,3 - 0,0
23.06.2018 21:00:00 27,7 11,7 4 2 SW 1013,3 - 0,0
23.06.2018 20:00:00 30,0 10,5 8 4 WSW 1012,4 - -
23.06.2018 19:00:00 30,4 12,3 5 3 WSW 1012,3 - 0,0
23.06.2018 18:00:00 30,2 12,1 8 4 WSW 1012,8 - 0,0
23.06.2018 17:00:00 30,0 14,1 8 4 SW 1013,3 20 -
23.06.2018 16:00:00 29,0 15,2 5 3 SSW 1014,1 - 0,0
23.06.2018 15:00:00 28,2 15,1 8 4 SSW 1015,0 - 0,0
23.06.2018 14:00:00 27,2 14,9 5 3 SW 1015,7 20 -
23.06.2018 13:00:00 26,2 15,0 9 5 SE 1016,5 - 0,0
23.06.2018 12:00:00 25,2 14,9 9 5 SE 1017,1 - 0,0
23.06.2018 11:00:00 23,6 14,3 11 6 ESE 1017,3 15 -
23.06.2018 10:00:00 22,1 14,5 16 9 ESE 1017,6 - 0,0
23.06.2018 09:00:00 20,5 15,9 16 9 E 1017,7 - 0,0
23.06.2018 08:00:00 18,5 14,6 5 3 E 1018,1 - -
23.06.2018 07:00:00 15,8 13,8 5 3 E 1018,3 - 0,0
23.06.2018 06:00:00 15,8 13,3 5 3 ESE 1018,0 - 0,0
23.06.2018 05:00:00 16,5 13,6 8 4 ESE 1017,7 - -
23.06.2018 04:00:00 16,6 13,5 8 4 E 1017,7 - 0,0
23.06.2018 03:00:00 16,7 13,4 8 4 E 1017,6 - 0,0
23.06.2018 02:00:00 17,6 14,1 8 4 W 1017,7 - -
23.06.2018 01:00:00 18,6 13,7 8 4 W 1017,0 - 0,0
23.06.2018 00:00:00 20,7 11,6 5 3 WNW 1015,7 - 0,0
22.06.2018 23:00:00 22,1 11,5 5 3 WNW 1014,8 - -
22.06.2018 22:00:00 24,0 12,0 5 3 WNW 1013,9 - 0,0
22.06.2018 21:00:00 27,1 11,9 9 5 W 1012,4 - 0,0
22.06.2018 20:00:00 29,8 12,2 9 5 W 1011,8 - -
22.06.2018 19:00:00 30,8 13,6 9 5 W 1011,5 - 0,0
22.06.2018 18:00:00 - - - - - - - -
22.06.2018 17:00:00 32,2 14,3 13 7 W 1011,7 45 -
22.06.2018 16:00:00 32,1 14,3 9 5 W 1012,0 - 0,0
22.06.2018 15:00:00 31,0 15,4 11 6 W 1013,1 - 0,0
22.06.2018 14:00:00 29,9 16,0 11 6 WSW 1014,2 35 -
22.06.2018 13:00:00 28,7 15,2 13 7 WSW 1015,1 - 0,0
22.06.2018 12:00:00 27,7 15,7 8 4 W 1015,4 - 0,0
22.06.2018 11:00:00 26,2 15,9 8 4 W 1016,0 40 -
22.06.2018 10:00:00 23,3 15,9 8 4 W 1016,7 - 0,0
22.06.2018 09:00:00 20,4 15,6 9 5 W 1017,2 - 0,0
22.06.2018 08:00:00 19,2 15,1 5 3 WNW 1017,3 - -
22.06.2018 07:00:00 18,2 14,3 8 4 WNW 1017,4 - 0,0
22.06.2018 06:00:00 18,2 14,1 8 4 W 1017,2 - 0,0
22.06.2018 05:00:00 19,6 11,6 2 1 SSW 1016,9 - -
22.06.2018 04:00:00 20,6 11,2 8 4 E 1016,4 - 0,0
22.06.2018 03:00:00 21,0 11,3 9 5 E 1016,6 - 0,0
22.06.2018 02:00:00 21,9 11,6 13 7 E 1016,5 - -
22.06.2018 01:00:00 23,3 12,9 15 8 E 1015,8 - 0,0
22.06.2018 00:00:00 25,0 15,0 8 4 E 1015,2 - 0,0
21.06.2018 23:00:00 26,6 14,4 4 2 NW 1014,6 - -
21.06.2018 22:00:00 27,6 13,9 5 3 N 1013,8 - 0,0
21.06.2018 21:00:00 28,8 13,9 11 6 N 1013,5 - 0,0
21.06.2018 20:00:00 30,4 11,4 8 4 WSW 1012,9 - -
21.06.2018 19:00:00 32,3 11,5 8 4 WSW 1012,6 - 0,0
21.06.2018 18:00:00 32,9 12,0 8 4 W 1013,0 - 0,0
21.06.2018 17:00:00 33,0 13,1 8 4 SW 1013,1 40 -
21.06.2018 16:00:00 32,6 11,7 8 4 W 1013,8 - 0,0
21.06.2018 15:00:00 31,7 11,0 8 4 W 1014,3 - 0,0
21.06.2018 14:00:00 31,1 12,5 9 5 W 1014,8 40 -
21.06.2018 13:00:00 29,9 11,9 8 4 WSW 1015,6 - 0,0
21.06.2018 12:00:00 28,4 11,0 8 4 WSW 1016,4 - 0,0
21.06.2018 11:00:00 27,2 12,4 5 3 WSW 1016,5 35 -
21.06.2018 10:00:00 25,5 12,3 5 3 SW 1017,1 - 0,0
21.06.2018 09:00:00 23,4 11,1 4 2 E 1017,9 - 0,0
21.06.2018 08:00:00 21,0 11,1 9 5 E 1017,9 - -
21.06.2018 07:00:00 19,2 9,7 11 6 E 1018,3 - 0,0
21.06.2018 06:00:00 18,1 9,4 2 1 N 1018,5 - 0,0
21.06.2018 05:00:00 18,7 9,7 5 3 NNW 1018,7 - -
21.06.2018 04:00:00 18,8 9,3 5 3 ENE 1018,8 - 0,0
21.06.2018 03:00:00 19,5 9,4 11 6 E 1018,7 - 0,0
21.06.2018 02:00:00 20,5 9,7 11 6 ENE 1018,7 - -
21.06.2018 01:00:00 20,6 10,1 11 6 ENE 1018,8 - 0,0
21.06.2018 00:00:00 21,2 10,7 13 7 E 1018,7 - 0,0
20.06.2018 23:00:00 22,5 11,2 11 6 E 1017,9 - -
20.06.2018 22:00:00 25,5 12,0 9 5 SE 1016,0 - 0,0
20.06.2018 21:00:00 27,9 11,4 8 4 SE 1014,9 - 0,0
20.06.2018 20:00:00 30,1 10,6 9 5 SSE 1014,4 - -
20.06.2018 19:00:00 31,0 11,9 8 4 SSE 1014,1 - 0,0
20.06.2018 18:00:00 31,1 12,0 9 5 SSE 1014,5 - 0,2
20.06.2018 17:00:00 31,2 11,6 11 6 SE 1014,7 30 -
20.06.2018 16:00:00 30,8 11,7 8 4 SSW 1015,2 - 0,0
20.06.2018 15:00:00 30,2 12,6 9 5 S 1015,7 - 0,0
20.06.2018 14:00:00 29,5 13,7 13 7 SE 1016,4 35 -
20.06.2018 13:00:00 28,8 13,9 9 5 SSE 1017,0 - 0,0
20.06.2018 12:00:00 27,8 14,4 8 4 S 1017,4 - 0,0
20.06.2018 11:00:00 26,9 14,0 9 5 SE 1017,7 35 -
20.06.2018 10:00:00 25,5 14,3 9 5 ESE 1018,1 - 0,0
20.06.2018 09:00:00 23,4 14,4 11 6 E 1018,6 - 0,0
20.06.2018 08:00:00 20,7 14,1 9 5 E 1019,1 - -
20.06.2018 07:00:00 18,7 13,3 9 5 E 1019,4 - 0,0
20.06.2018 06:00:00 18,0 13,5 13 7 E 1019,4 - 0,0
20.06.2018 05:00:00 18,3 13,6 13 7 E 1019,3 - -
20.06.2018 04:00:00 18,4 13,7 11 6 E 1019,3 - 0,0
20.06.2018 03:00:00 19,1 13,7 11 6 ENE 1019,3 - 0,0
20.06.2018 02:00:00 19,5 13,4 9 5 E 1019,3 - -
20.06.2018 01:00:00 20,6 13,1 11 6 E 1019,1 - 0,0
20.06.2018 00:00:00 21,6 13,0 9 5 ENE 1018,5 - 0,0
19.06.2018 23:00:00 22,0 12,8 9 5 E 1018,3 - -
19.06.2018 22:00:00 24,0 12,6 8 4 ESE 1017,2 - 0,0
19.06.2018 21:00:00 26,7 12,4 4 2 SE 1016,4 - 0,0
19.06.2018 20:00:00 28,8 10,9 4 2 S 1015,8 - -
19.06.2018 19:00:00 29,1 10,7 5 3 SW 1015,8 - 0,0
19.06.2018 18:00:00 29,2 11,7 5 3 W 1016,3 - 0,0
19.06.2018 17:00:00 28,7 10,4 8 4 WSW 1017,0 60 -
19.06.2018 16:00:00 28,0 11,5 8 4 WSW 1017,5 - 0,0
19.06.2018 15:00:00 27,0 12,6 5 3 SSW 1018,1 - 0,0
19.06.2018 14:00:00 25,5 11,6 8 4 SSW 1019,0 75 -
19.06.2018 13:00:00 24,0 13,2 4 2 NE 1019,8 - 0,0
19.06.2018 12:00:00 22,4 13,5 5 3 SSW 1020,8 - 0,0
19.06.2018 11:00:00 20,4 13,8 5 3 WSW 1021,4 50 -
19.06.2018 10:00:00 18,9 14,0 4 2 SSW 1022,1 - 0,0
19.06.2018 09:00:00 17,6 13,3 9 5 ESE 1022,2 - 0,0
19.06.2018 08:00:00 14,8 12,7 4 2 E 1022,5 - -
19.06.2018 07:00:00 13,1 12,0 5 3 NW 1022,9 - 0,0
19.06.2018 06:00:00 12,9 11,6 4 2 WNW 1022,4 - 0,0
19.06.2018 05:00:00 13,4 11,6 4 2 W 1021,8 - -
19.06.2018 04:00:00 13,6 11,8 4 2 NW 1021,5 - 0,0
19.06.2018 03:00:00 13,9 11,8 9 5 W 1021,6 - 0,0
19.06.2018 02:00:00 14,9 11,7 8 4 W 1021,4 - -
19.06.2018 01:00:00 15,8 11,8 9 5 W 1020,9 - 0,0
19.06.2018 00:00:00 16,9 11,8 9 5 W 1020,9 - 0,0
18.06.2018 23:00:00 18,2 12,0 8 4 WNW 1020,4 - -
18.06.2018 22:00:00 20,0 12,0 8 4 W 1019,2 - 0,0
18.06.2018 21:00:00 22,6 12,8 8 4 W 1018,2 - 0,0
18.06.2018 20:00:00 25,8 12,3 9 5 W 1017,1 - -
18.06.2018 19:00:00 27,4 13,0 11 6 W 1016,5 - 0,0
18.06.2018 18:00:00 28,4 12,3 13 7 WSW 1016,4 - 0,0
18.06.2018 17:00:00 29,3 12,7 11 6 WSW 1016,4 50 -
18.06.2018 16:00:00 29,1 11,2 8 4 W 1016,9 - 0,0
18.06.2018 15:00:00 28,2 11,3 5 3 W 1017,6 - 0,0
18.06.2018 14:00:00 27,1 11,6 8 4 WSW 1018,3 50 -
18.06.2018 13:00:00 24,8 10,3 5 3 NW 1019,5 - 0,0
18.06.2018 12:00:00 22,8 10,2 5 3 WNW 1020,2 - 0,0
18.06.2018 11:00:00 20,7 10,5 5 3 W 1021,0 75 -
18.06.2018 10:00:00 19,0 8,9 4 2 SE 1021,5 - 0,0
18.06.2018 09:00:00 17,3 9,2 8 4 E 1021,7 - 0,0
18.06.2018 08:00:00 14,7 7,5 2 1 E 1021,9 - -
18.06.2018 07:00:00 12,1 5,9 4 2 NNE 1021,9 - 0,0
18.06.2018 06:00:00 12,4 5,8 8 4 NW 1021,6 - 0,0
18.06.2018 05:00:00 11,9 6,0 5 3 W 1021,5 - -
18.06.2018 04:00:00 12,7 5,6 9 5 W 1021,0 - 0,0
18.06.2018 03:00:00 13,4 6,0 9 5 W 1021,0 - 0,0
18.06.2018 02:00:00 13,8 6,6 8 4 W 1020,8 - -
18.06.2018 01:00:00 14,9 7,0 13 7 WSW 1020,8 - 0,0

tt = Température de l'air
td = dewpoint
ff = Vitesse du vent
dd = Direction du vent
ppp = reduced air pressure
vv = visibility
rr = Quantités de précipitations

stations d'obs. à proximité